Tunica, MS

3:15 PM CDT on August 21, 2017 (GMT -0500)
Tunica

Weather History for KUTA - April, 2014

Change the Weather History Date:

Sunday, April 6, 2014

  Actual Average (KAWM) Record (KAWM)
Temperature  
Mean Temperature 50 °F -  
Max Temperature 57 °F 67 °F 86 °F (1978)
Min Temperature 42 °F 45 °F 29 °F (1971)
Degree Days  
Heating Degree Days 16    
Moisture  
Dew Point 42 °F    
Average Humidity 76    
Maximum Humidity 87    
Minimum Humidity 51    
Precipitation  
Precipitation 0.67 in - - ()
Sea Level Pressure  
Sea Level Pressure 29.95 in    
Wind  
Wind Speed 6 mph (NE)    
Max Wind Speed 13 mph    
Max Gust Speed -    
Visibility 9 miles    
Events Rain , Thunderstorm    
Averages and records for this station are not official NWS values.
T = Trace of Precipitation, MM = Missing Value Source: NWS Daily Summary

Daily Weather History Graph

Daily Weather History Graph

Search for Another Location

Airport or City:

Trip Planner

Search our weather history database for the weather conditions in past years. The results will help you decide how hot, cold, wet, or windy it might be!

Date:

Astronomy

Apr. 06, 2014 Rise Set
Actual Time 6:41 AM CDT 7:26 PM CDT
Civil Twilight 6:16 AM CDT 7:52 PM CDT
Nautical Twilight 5:45 AM CDT 8:22 PM CDT
Astronomical Twilight 5:15 AM CDT 8:53 PM CDT
Moon 11:50 AM CDT (4/6) 1:14 AM CDT (4/6)
Length of Visible Light 13h 36m
Length of Day
12h 44m
Waxing Crescent, 44% of the Moon is Illuminated
Apr 6
Waxing Crescent
Apr 7
First Quarter
Apr 15
Full
Apr 22
Last Quarter
Apr 29
New

Hourly Weather History & Observations

Time (CDT) Temp. Windchill Dew Point Humidity Pressure Visibility Wind Dir Wind Speed Gust Speed Precip Events Conditions
12:15 AM 48.2 °F - 42.8 °F 82% 30.09 in 10.0 mi NE 4.6 mph - N/A   Clear
12:35 AM 46.4 °F 43.5 °F 42.8 °F 87% 30.08 in 10.0 mi NNE 5.8 mph - N/A   Clear
12:55 AM 46.4 °F 43.5 °F 41.0 °F 81% 30.08 in 10.0 mi NNE 5.8 mph - N/A   Clear
1:15 AM 48.2 °F - 41.0 °F 76% 30.08 in 10.0 mi NNE 5.8 mph - N/A   Clear
1:35 AM 46.4 °F 42.9 °F 41.0 °F 81% 30.05 in 10.0 mi NNE 6.9 mph - N/A   Clear
1:55 AM 46.4 °F 43.5 °F 41.0 °F 81% 30.05 in 10.0 mi NNE 5.8 mph - N/A   Clear
2:15 AM 46.4 °F 43.5 °F 41.0 °F 81% 30.05 in 10.0 mi NNE 5.8 mph - N/A   Clear
2:35 AM 46.4 °F 45.2 °F 41.0 °F 81% 30.04 in 10.0 mi ENE 3.5 mph - N/A   Clear
2:55 AM 46.4 °F 45.2 °F 41.0 °F 81% 30.05 in 10.0 mi NNE 3.5 mph - N/A   Clear
3:15 AM 46.4 °F 45.2 °F 41.0 °F 81% 30.06 in 10.0 mi North 3.5 mph - N/A   Clear
3:35 AM 44.6 °F 41.4 °F 41.0 °F 87% 30.05 in 10.0 mi NNW 5.8 mph - N/A   Clear
3:55 AM 44.6 °F 40.7 °F 41.0 °F 87% 30.05 in 10.0 mi NNW 6.9 mph - N/A   Clear
4:15 AM 44.6 °F 40.2 °F 39.2 °F 81% 30.04 in 10.0 mi North 8.1 mph - N/A   Clear
4:35 AM 44.6 °F 40.7 °F 39.2 °F 81% 30.04 in 10.0 mi North 6.9 mph - N/A   Clear
4:55 AM 44.6 °F 40.7 °F 39.2 °F 81% 30.04 in 10.0 mi North 6.9 mph - N/A   Clear
5:15 AM 44.6 °F 40.7 °F 39.2 °F 81% 30.04 in 10.0 mi North 6.9 mph - N/A   Clear
5:35 AM 44.6 °F 40.2 °F 37.4 °F 76% 30.03 in 10.0 mi NNE 8.1 mph - N/A   Clear
5:55 AM 44.6 °F 41.4 °F 37.4 °F 76% 30.04 in 10.0 mi NNE 5.8 mph - N/A   Clear
6:15 AM 42.8 °F 38.6 °F 37.4 °F 81% 30.05 in 10.0 mi North 6.9 mph - N/A   Clear
6:35 AM 42.8 °F 39.3 °F 37.4 °F 81% 30.04 in 10.0 mi NNE 5.8 mph - N/A   Clear
6:55 AM 42.8 °F 38.6 °F 37.4 °F 81% 30.03 in 10.0 mi NNE 6.9 mph - N/A   Clear
7:15 AM 42.8 °F 38.6 °F 39.2 °F 87% 30.03 in 10.0 mi NE 6.9 mph - N/A   Clear
7:35 AM 44.6 °F 39.7 °F 37.4 °F 76% 30.02 in 10.0 mi NE 9.2 mph - N/A   Clear
7:55 AM 46.4 °F 41.5 °F 39.2 °F 76% 29.99 in 10.0 mi ENE 10.4 mph - N/A   Clear
8:15 AM 48.2 °F - 39.2 °F 71% 30.01 in 10.0 mi East 8.1 mph - N/A   Clear
8:35 AM 50.0 °F - 37.4 °F 62% 30.02 in 10.0 mi East 6.9 mph - N/A   Clear
8:55 AM 51.8 °F - 37.4 °F 58% 30.03 in 10.0 mi ESE 6.9 mph - N/A   Clear
9:15 AM 51.8 °F - 39.2 °F 62% 30.04 in 10.0 mi ESE 8.1 mph - N/A   Clear
9:35 AM 51.8 °F - 39.2 °F 62% 30.04 in 10.0 mi East 6.9 mph - N/A   Clear
9:55 AM 51.8 °F - 39.2 °F 62% 30.03 in 10.0 mi ENE 5.8 mph - N/A   Clear
10:15 AM 53.6 °F - 39.2 °F 58% 30.04 in 10.0 mi East 4.6 mph - N/A   Clear
10:55 AM 55.4 °F - 39.2 °F 54% 30.00 in 10.0 mi East 8.1 mph - N/A   Clear
11:15 AM 55.4 °F - 37.4 °F 51% 29.97 in 10.0 mi East 11.5 mph - N/A   Clear
11:35 AM 55.4 °F - 39.2 °F 54% 29.96 in 10.0 mi East 9.2 mph - N/A   Clear
11:55 AM 55.4 °F - 39.2 °F 54% 29.98 in 10.0 mi East 8.1 mph - N/A   Clear
12:15 PM 55.4 °F - 37.4 °F 51% 30.00 in 10.0 mi ESE 3.5 mph - N/A   Clear
12:35 PM 57.2 °F - 39.2 °F 51% 30.01 in 10.0 mi SSE 8.1 mph - N/A   Clear
12:55 PM 55.4 °F - 41.0 °F 58% 30.01 in 10.0 mi SSE 4.6 mph - N/A   Clear
1:15 PM 55.4 °F - 42.8 °F 63% 30.01 in 10.0 mi SW 8.1 mph - N/A   Clear
1:35 PM 55.4 °F - 42.8 °F 63% 29.99 in 10.0 mi SSW 4.6 mph - N/A   Clear
1:55 PM 55.4 °F - 42.8 °F 63% 29.99 in 10.0 mi SW 4.6 mph - N/A Rain Light Rain
2:15 PM 53.6 °F - 42.8 °F 67% 29.95 in 10.0 mi Calm Calm - N/A Rain Light Rain
2:35 PM 55.4 °F - 42.8 °F 63% 29.91 in 10.0 mi NNE 3.5 mph - N/A Rain Light Rain
2:55 PM 55.4 °F - 44.6 °F 67% 29.90 in 10.0 mi ENE 3.5 mph - N/A   Clear
3:15 PM 53.6 °F - 44.6 °F 72% 29.88 in 10.0 mi ENE 5.8 mph - N/A Rain Light Rain
3:35 PM 53.6 °F - 44.6 °F 72% 29.88 in 10.0 mi East 3.5 mph - N/A Rain Light Rain
3:55 PM 53.6 °F - 46.4 °F 77% 29.87 in 5.0 mi Calm Calm - 0.02 in Rain Rain
4:15 PM 53.6 °F - 46.4 °F 77% 29.86 in 10.0 mi ESE 3.5 mph - 0.01 in Rain Light Rain
4:35 PM 51.8 °F - 46.4 °F 82% 29.88 in 10.0 mi SE 4.6 mph - 0.03 in Rain Rain
4:55 PM 51.8 °F - 46.4 °F 82% 29.88 in 4.0 mi Calm Calm - 0.10 in Rain , Thunderstorm Rain
5:15 PM 50.0 °F - 46.4 °F 87% 29.88 in 3.0 mi ENE 3.5 mph - 0.08 in Rain , Thunderstorm Heavy Thunderstorms and Rain
5:35 PM 50.0 °F - 46.4 °F 87% 29.89 in 1.8 mi Calm Calm - 0.22 in Rain Heavy Rain
5:55 PM 50.0 °F - 46.4 °F 87% 29.87 in 2.5 mi NE 6.9 mph - 0.32 in Rain Rain
6:15 PM 50.0 °F - 46.4 °F 87% 29.87 in 4.0 mi North 5.8 mph - 0.06 in Rain , Thunderstorm Rain
6:35 PM 50.0 °F - 46.4 °F 87% 29.87 in 5.0 mi NNE 9.2 mph - 0.10 in Rain Rain
6:55 PM 50.0 °F - 46.4 °F 87% 29.84 in 5.0 mi NE 11.5 mph - 0.15 in Rain Rain
7:15 PM 50.0 °F - 46.4 °F 87% 29.84 in 5.0 mi NE 10.4 mph - 0.03 in Rain Rain
7:35 PM 50.0 °F - 46.4 °F 87% 29.82 in 7.0 mi NE 10.4 mph - 0.06 in Rain , Thunderstorm Light Thunderstorms and Rain
7:55 PM 50.0 °F - 46.4 °F 87% 29.81 in 7.0 mi ENE 11.5 mph - 0.08 in Rain Light Rain
8:15 PM 50.0 °F - 46.4 °F 87% 29.77 in 10.0 mi NE 12.7 mph - N/A   Overcast
8:35 PM 50.0 °F - 46.4 °F 87% 29.78 in 10.0 mi NE 10.4 mph - N/A   Overcast
8:55 PM 50.0 °F - 46.4 °F 87% 29.77 in 10.0 mi NE 11.5 mph - N/A   Overcast
9:15 PM 50.0 °F - 46.4 °F 87% 29.78 in 10.0 mi NNE 11.5 mph - N/A   Overcast
9:35 PM 50.0 °F - 46.4 °F 87% 29.78 in 10.0 mi NNE 8.1 mph - N/A   Overcast
9:55 PM 50.0 °F - 46.4 °F 87% 29.76 in 10.0 mi North 11.5 mph - N/A   Overcast
10:15 PM 50.0 °F - 46.4 °F 87% 29.76 in 10.0 mi North 11.5 mph - N/A   Overcast
10:35 PM 50.0 °F - 46.4 °F 87% 29.77 in 7.0 mi North 11.5 mph - N/A   Overcast
10:55 PM 50.0 °F - 46.4 °F 87% 29.74 in 10.0 mi NNE 11.5 mph - N/A   Overcast
11:15 PM 50.0 °F - 46.4 °F 87% 29.74 in 10.0 mi NNE 10.4 mph - N/A   Overcast
11:35 PM 50.0 °F - 46.4 °F 87% 29.74 in 10.0 mi NNE 11.5 mph - N/A   Overcast